Simultaneous Nadir Overpasses (SNOs) Predictions

Prediction of SNOs between AQUA and GOES-15 Satellite Orbit:

Table of predicted SNOs for the next 14.0 days since TLE Epoch: 8/4/2017
Index Date Time (AQUA) AQUA Lat,Lon GOES-15 Lat,Lon Distance(km) Time Diff (sec)
1 08/05/2017 22:34:36 -0.34,-134.77 -0.34,-134.76 1.05 80
2 08/07/2017 22:22:25 0.30,-131.82 -0.34,-134.82 340.63 80
3 08/08/2017 10:43:41 0.79,-136.98 0.36,-134.82 244.73 80
4 08/10/2017 10:31:29 0.20,-134.02 0.35,-134.87 96.02 80
5 08/10/2017 22:52:53 -1.29,-139.21 -0.36,-134.87 492.99 80
6 08/12/2017 10:19:18 -0.45,-131.07 0.35,-134.91 436.23 80
7 08/12/2017 22:40:42 -0.63,-136.26 -0.36,-134.91 152.66 80
8 08/14/2017 22:28:30 -0.03,-133.30 -0.36,-134.95 186.88 80
9 08/15/2017 10:49:46 1.13,-138.46 0.37,-134.96 397.57 80
10 08/17/2017 10:37:35 0.47,-135.51 0.36,-134.98 59.41 80




NCC Satellite Simultaneous Nadir Overpasses (SNOs) Prediction Service
